Location: Demre
(36.2444°N, 29.9850°E)
Time: 05:32:44
(UTC+00:00)

Meteor 1-5 Rocket - Pass Details

Date: 11 March 2026
Orbit: 787 x 914 km, 81.2° (Epoch: 21 April)

Event Time Altitude Azimuth Distance (km) Brightness Sun altitude
Rises 16:43:08 0° 173° (S) 3,532 7.3 -8.8°
Reaches altitude 10° 16:45:40 10° 169° (SSE) 2,593 6.6 -9.3°
Maximum altitude 16:51:24 53° 94° (E) 1,106 4.5 -10.4°
Drops below altitude 10° 16:57:04 10° 19° (NNE) 2,566 6.6 -11.6°
Sets 16:59:33 0° 15° (NNE) 3,493 7.3 -12.1°
